[[{"header":{"parameterUnit":"m.s-1","parameterCategory":1,"la1":30.2991,"la2":30.254,"lo1":-89.0895,"lo2":-89.0444,"dy":0.0017,"dx":0.0017,"nx":28,"ny":28,"refTime":"2024-05-13T03:00:00:Z","depth":0,"parameterNumber":2,"parameterNumberName":"U-component_of_WINDS"},"data":[0,0,0,0,0,0,0,0,0,0,0,0,0,0,0,0,0,0,0,0,0,0,0,0,0,0,0,0,0,0,0,0,0,0,0,0,0,0,0,0,0,0,0,0,0,0,0,0,0,0,0,0,0,0,0,0,0,0,-5.2182,-5.2184,0,-5.2335,-5.2337,-5.2339,-5.2349,-5.2347,-5.2345,-5.2344,-5.2499,-5.2504,-5.251,0,0,0,0,0,0,0,0,0,0,0,0,0,-5.1897,-5.1902,-5.2182,-5.2184,-5.2186,-5.2335,-5.2337,-5.2339,-5.2349,-5.2347,-5.2345,-5.2343,-5.2497,-5.2503,-5.251,0,0,0,0,0,0,0,0,0,0,0,0,0,-5.2033,-5.1904,-5.2182,-5.2209,-5.2213,-5.2335,-5.2337,-5.234,-5.235,-5.2347,-5.2344,-5.2342,-5.2494,-5.2503,-5.2511,-5.2616,0,0,-5.2537,-5.2541,0,0,0,0,0,0,0,0,-5.2025,-5.2043,-5.2203,-5.2207,-5.2212,-5.232,-5.2293,-5.2432,-5.235,-5.2298,-5.2344,-5.2341,-5.2441,-5.2454,-5.2488,-5.2623,-5.263,-5.2538,-5.2543,-5.2547,-5.2549,0,0,0,0,0,0,0,-5.2015,-5.2036,-5.2243,-5.2205,-5.2211,-5.2213,-5.223,-5.232,-5.2382,-5.2302,-5.2303,-5.2321,-5.2443,-5.248,-5.2492,-5.2632,-5.2538,-5.2546,-5.2551,-5.2554,-5.2859,-5.2862,0,0,0,0,0,0,-5.2001,-5.2029,-5.2238,-5.2247,-5.211,-5.222,-5.2239,-5.2288,-5.2381,-5.2393,-5.2323,-5.2321,-5.2467,-5.2482,-5.2497,-5.2624,-5.2547,-5.2555,-5.256,-5.2856,-5.286,-5.2863,0,0,0,0,0,0,-5.1995,-5.202,-5.2232,-5.2138,-5.2166,-5.2228,-5.2283,-5.2292,-5.2329,-5.2397,-5.2408,-5.2349,-5.2465,-5.2485,-5.2586,-5.263,-5.2559,-5.2567,-5.2853,-5.2858,-5.2862,-5.2879,0,0,0,0,0,0,-5.1987,-5.2017,-5.2058,-5.2139,-5.217,-5.2318,-5.2286,-5.2297,-5.2344,-5.2343,-5.2425,-5.2436,-5.2465,-5.2573,-5.2595,-5.264,-5.2573,-5.2849,-5.2855,-5.286,-5.2875,-5.2884,-5.2891,0,0,0,0,0,-5.1977,-5.2056,-5.206,-5.2085,-5.2222,-5.232,-5.2338,-5.237,-5.2348,-5.2388,-5.2432,-5.2433,-5.2623,-5.2584,-5.2608,-5.2656,-5.2847,-5.2853,-5.286,-5.2871,-5.2882,-5.2891,0,0,0,0,0,0,-5.1977,-5.2067,-5.2072,-5.2181,-5.2243,-5.2322,-5.2374,-5.2381,-5.245,-5.2446,-5.2483,-5.2502,-5.2601,-5.264,-5.2594,-5.2762,-5.2732,-5.2744,-5.2732,-5.2743,-5.2751,-5.2738,-5.2581,0,0,0,0,0,-5.199,-5.2063,-5.2138,-5.2226,-5.2257,-5.2311,-5.2354,-5.2375,-5.244,-5.2466,-5.2517,-5.258,-5.2654,-5.2702,-5.2773,-5.2883,-5.2899,-5.2928,-5.2936,-5.2943,-5.2951,-5.301,-5.3023,-5.2885,-5.2885,-5.2885,0,0,-5.2017,-5.2075,-5.2118,-5.2228,-5.2278,-5.2352,-5.2332,-5.2411,-5.2466,-5.2478,-5.2575,-5.2616,-5.2689,-5.2794,-5.2843,-5.2829,-5.2994,-5.2951,-5.2956,-5.2961,-5.3018,-5.3031,-5.3043,-5.289,-5.2889,-5.2888,0,0,-5.2102,-5.2155,-5.2234,-5.2285,-5.2363,-5.2398,-5.2417,-5.2496,-5.2523,-5.2622,-5.2633,-5.2699,-5.2826,-5.2877,-5.2919,-5.3028,-5.303,-5.305,-5.3091,-5.3148,-5.3159,-5.3169,-5.3205,-5.3217,-5.306,-5.306,-5.306,0,-5.2125,-5.2236,-5.2273,-5.2352,-5.2399,-5.2416,-5.2495,-5.2543,-5.264,-5.2672,-5.2656,-5.2816,-5.2867,-5.2983,-5.3009,-5.3045,-5.3066,-5.3039,-5.3155,-5.3165,-5.3175,-5.3209,-5.3223,-5.3061,-5.3061,-5.3061,-5.3061,0,-5.226,-5.2337,-5.2392,-5.2485,-5.2539,-5.2618,-5.2666,-5.2716,-5.2733,-5.277,-5.287,-5.2933,-5.3017,-5.3047,-5.3064,-5.3166,-5.3155,-5.3147,-5.3116,-5.3189,-5.3221,-5.3235,-5.3064,-5.3063,-5.3063,-5.3062,0,0,-5.2345,-5.246,-5.2479,-5.2521,-5.2609,-5.2669,-5.2749,-5.2833,-5.2874,-5.2942,-5.3008,-5.3116,-5.311,-5.3158,-5.3182,-5.3233,-5.3311,-5.3218,-5.3221,-5.323,-5.3426,-5.3428,-5.3443,-5.3316,-5.3319,-5.3321,-5.3418,0,-5.2438,-5.258,-5.2616,-5.2737,-5.2808,-5.2827,-5.2896,-5.2958,-5.2995,-5.3061,-5.3103,-5.3178,-5.3165,-5.3194,-5.3246,-5.3291,-5.335,-5.3285,-5.3376,-5.3379,-5.3352,-5.3461,-5.3463,-5.3552,-5.3432,-5.3434,-5.3436,0,-5.2563,-5.2633,-5.2761,-5.284,-5.2871,-5.2933,-5.3012,-5.3076,-5.3146,-5.317,-5.3226,-5.3245,-5.3328,-5.3297,-5.3412,-5.3367,-5.3407,-5.3435,-5.344,-5.3445,-5.3408,-5.3466,-5.3582,-5.3593,-5.3457,-5.3455,-5.3454,0,-5.2608,-5.2736,-5.2828,-5.2865,-5.296,-5.3002,-5.3044,-5.3112,-5.316,-5.323,-5.3261,-5.334,-5.3382,-5.3443,-5.3483,-5.3457,-5.3594,-5.3566,-5.3614,-5.3613,-5.3638,-5.3635,-5.3757,-5.3671,-5.3671,-5.367,-5.367,0,-5.2705,-5.2782,-5.285,-5.2906,-5.2993,-5.3035,-5.3119,-5.3162,-5.3223,-5.3287,-5.331,-5.337,-5.3421,-5.3488,-5.352,-5.3609,-5.3629,-5.365,-5.3656,-5.3645,-5.3642,-5.3668,-5.3662,-5.3674,-5.3673,-5.3673,-5.3672,0,-5.2768,-5.2817,-5.2919,-5.3002,-5.3024,-5.3084,-5.3155,-5.321,-5.325,-5.3332,-5.3353,-5.3415,-5.3496,-5.3543,-5.3645,-5.3666,-5.3764,-5.377,-5.374,-5.3742,-5.3785,-5.3779,-5.3926,-5.3946,-5.385,-5.385,-5.3851,0,-5.2824,-5.2884,-5.2973,-5.3019,-5.3061,-5.3134,-5.3183,-5.3228,-5.3278,-5.3364,-5.3409,-5.3491,-5.3558,-5.3686,-5.374,-5.3818,-5.3824,-5.387,-5.3835,-5.3822,-5.382,-5.3814,-5.382,-5.3874,-5.3875,-5.3876,-5.3876,0,-5.2918,-5.294,-5.301,-5.3089,-5.3148,-5.3212,-5.3276,-5.3312,-5.3368,-5.3424,-5.3506,-5.3559,-5.3663,-5.3744,-5.3827,-5.387,-5.3881,-5.3888,-5.3902,-5.3889,-5.3867,-5.3876,-5.3751,-5.3883,-5.3882,-5.3882,-5.3881,-5.3881,-5.2977,-5.303,-5.3102,-5.3179,-5.3233,-5.3293,-5.3348,-5.3396,-5.3466,-5.3554,-5.3578,-5.3664,-5.3734,-5.3846,-5.3892,-5.396,-5.3952,-5.3973,-5.3978,-5.3982,-5.3981,-5.3861,-5.3976,-5.3975,-5.3975,-5.3975,-5.3975,0,-5.3069,-5.3116,-5.3188,-5.3277,-5.3338,-5.3347,-5.3419,-5.3469,-5.3545,-5.361,-5.3676,-5.3771,-5.385,-5.3912,-5.3993,-5.4035,-5.4043,-5.4055,-5.405,-5.4059,-5.3985,-5.3963,-5.4047,-5.4047,-5.4047,-5.4047,-5.4047,-5.4047,-5.3123,-5.3213,-5.3244,-5.3361,-5.3408,-5.3493,-5.3533,-5.3588,-5.364,-5.3745,-5.3811,-5.3851,-5.3915,-5.4001,-5.4074,-5.409,-5.4117,-5.4127,-5.4144,-5.4072,-5.4064,-5.4057,-5.4036,-5.4134,-5.4134,-5.4211,-5.4212,-5.4212]},{"header":{"parameterUnit":"m.s-1","parameterCategory":1,"la1":30.2991,"la2":30.254,"lo1":-89.0895,"lo2":-89.0444,"dy":0.0017,"dx":0.0017,"nx":28,"ny":28,"refTime":"2024-05-13T03:00:00:Z","depth":0,"parameterNumber":3,"parameterNumberName":"V-component_of_WINDS"},"data":[0,0,0,0,0,0,0,0,0,0,0,0,0,0,0,0,0,0,0,0,0,0,0,0,0,0,0,0,0,0,0,0,0,0,0,0,0,0,0,0,0,0,0,0,0,0,0,0,0,0,0,0,0,0,0,0,0,0,4.6456,4.6458,0,4.6669,4.6671,4.6673,4.6694,4.6692,4.669,4.6688,4.6903,4.6911,4.6919,0,0,0,0,0,0,0,0,0,0,0,0,0,4.6067,4.6074,4.6456,4.6459,4.6461,4.6668,4.6671,4.6674,4.6694,4.6692,4.6689,4.6687,4.6901,4.691,4.6919,0,0,0,0,0,0,0,0,0,0,0,0,0,4.6253,4.6076,4.6455,4.6496,4.6502,4.6668,4.6671,4.6675,4.6695,4.6692,4.6688,4.6685,4.6898,4.6909,4.6921,4.7059,0,0,4.6956,4.6962,0,0,0,0,0,0,0,0,4.6243,4.6267,4.6488,4.6494,4.6501,4.6651,4.6613,4.6804,4.6696,4.6622,4.6687,4.6684,4.6822,4.684,4.6887,4.7069,4.7079,4.6957,4.6965,4.697,4.6973,0,0,0,0,0,0,0,4.623,4.6258,4.654,4.6491,4.6499,4.6504,4.6527,4.6649,4.6738,4.6628,4.663,4.6655,4.6825,4.6876,4.6892,4.7082,4.6957,4.6968,4.6975,4.6979,4.7389,4.7393,0,0,0,0,0,0,4.6209,4.6247,4.6533,4.6546,4.6361,4.6514,4.6539,4.6606,4.6737,4.6753,4.6658,4.6655,4.6857,4.6878,4.69,4.7071,4.6969,4.698,4.6987,4.7386,4.739,4.7394,0,0,0,0,0,0,4.6201,4.6234,4.6525,4.6398,4.6435,4.6524,4.6599,4.6612,4.6663,4.6759,4.6775,4.6693,4.6855,4.6883,4.702,4.7079,4.6986,4.6996,4.7381,4.7387,4.7392,4.7414,0,0,0,0,0,0,4.6189,4.6231,4.6285,4.6399,4.6442,4.6641,4.6603,4.6619,4.6683,4.6682,4.6796,4.6812,4.6855,4.7002,4.7031,4.7093,4.7006,4.7376,4.7384,4.7391,4.7408,4.742,4.743,0,0,0,0,0,4.6176,4.6282,4.6288,4.6322,4.6511,4.6645,4.6669,4.6717,4.6688,4.6743,4.6805,4.6809,4.7068,4.7016,4.7049,4.7115,4.7373,4.7382,4.739,4.7404,4.7418,4.7429,0,0,0,0,0,0,4.6172,4.6298,4.6305,4.6452,4.6538,4.6648,4.6718,4.673,4.6825,4.682,4.6875,4.69,4.7035,4.7089,4.7029,4.7257,4.7217,4.7233,4.7216,4.723,4.7241,4.7224,4.7015,0,0,0,0,0,4.6189,4.6288,4.6392,4.6511,4.6554,4.6629,4.6689,4.6718,4.6809,4.6845,4.6917,4.7004,4.7106,4.7171,4.7269,4.7417,4.7442,4.7479,4.7489,4.7497,4.751,4.7592,4.761,4.7423,4.7423,4.7423,0,0,4.6224,4.6304,4.6363,4.6513,4.6582,4.6683,4.6659,4.6766,4.6842,4.6861,4.6995,4.7051,4.7152,4.7294,4.7361,4.7343,4.7568,4.7508,4.7514,4.7523,4.7603,4.7621,4.7636,4.7429,4.7428,4.7427,0,0,4.6338,4.641,4.6517,4.6588,4.6694,4.6744,4.6769,4.6879,4.6917,4.7052,4.7069,4.7159,4.7332,4.7404,4.7463,4.7606,4.7613,4.7637,4.7692,4.7771,4.7786,4.7799,4.785,4.7868,4.7649,4.7649,4.7649,0,4.6368,4.6521,4.6571,4.6678,4.6743,4.6767,4.6876,4.6942,4.7075,4.7119,4.7098,4.7317,4.7387,4.7546,4.7581,4.7629,4.766,4.7623,4.778,4.7794,4.7807,4.7856,4.7875,4.7651,4.7651,4.7651,4.7651,0,4.6552,4.6658,4.6732,4.6861,4.6934,4.7042,4.7108,4.7176,4.7199,4.7251,4.7388,4.7473,4.7589,4.763,4.7653,4.7793,4.7779,4.7769,4.773,4.7826,4.7873,4.7893,4.7654,4.7653,4.7653,4.7652,0,0,4.667,4.6826,4.6852,4.6911,4.703,4.7113,4.7222,4.7336,4.7394,4.7485,4.7578,4.7724,4.7716,4.7783,4.7814,4.7884,4.7993,4.7865,4.7869,4.7886,4.8153,4.816,4.8181,4.7999,4.8003,4.8006,4.8144,0,4.6799,4.6994,4.7042,4.7208,4.7307,4.7331,4.7426,4.7509,4.756,4.7651,4.7708,4.7811,4.7791,4.7832,4.7902,4.7964,4.8047,4.7955,4.8085,4.8089,4.8058,4.8206,4.8213,4.834,4.8163,4.8166,4.8168,0,4.6975,4.707,4.7246,4.7354,4.7397,4.7481,4.759,4.7677,4.7772,4.7805,4.788,4.7905,4.802,4.7976,4.8134,4.8071,4.8127,4.8166,4.8172,4.8185,4.8134,4.8223,4.8382,4.84,4.8198,4.8196,4.8194,0,4.7043,4.7216,4.7344,4.7393,4.7521,4.758,4.7636,4.7729,4.7794,4.789,4.7933,4.804,4.8099,4.8181,4.8235,4.8198,4.8389,4.8349,4.8419,4.8418,4.8458,4.8454,4.8627,4.8494,4.8494,4.8494,4.8493,0,4.7181,4.7288,4.7376,4.7455,4.7575,4.763,4.7747,4.7804,4.7886,4.7976,4.8003,4.8087,4.8153,4.8246,4.8289,4.8413,4.844,4.8469,4.8479,4.8467,4.8463,4.8504,4.8496,4.8499,4.8498,4.8497,4.8496,0,4.7278,4.7341,4.7482,4.7592,4.7623,4.7707,4.7801,4.7878,4.793,4.8044,4.8074,4.8156,4.8267,4.8328,4.8468,4.8496,4.8636,4.8641,4.8603,4.8608,4.8674,4.8667,4.8879,4.8909,4.8756,4.8757,4.8758,0,4.7362,4.7445,4.7564,4.7626,4.7684,4.7784,4.7851,4.7908,4.7977,4.8093,4.8156,4.8269,4.8362,4.8538,4.861,4.8717,4.8725,4.8792,4.8741,4.8726,4.8726,4.872,4.8729,4.88,4.8802,4.8803,4.8804,0,4.7504,4.7532,4.7628,4.7736,4.7816,4.7904,4.799,4.804,4.8111,4.8188,4.8302,4.8374,4.8516,4.8628,4.8741,4.8798,4.8814,4.882,4.8841,4.8829,4.8804,4.8819,4.8627,4.8814,4.8813,4.8812,4.8812,4.8811,4.7597,4.7672,4.7768,4.7875,4.7946,4.8027,4.8105,4.8167,4.8263,4.8384,4.8412,4.8532,4.8626,4.8779,4.8839,4.8934,4.8922,4.8953,4.8961,4.8968,4.897,4.8789,4.8955,4.8955,4.8955,4.8954,4.8954,0,4.7741,4.7804,4.7902,4.8022,4.8106,4.8114,4.821,4.828,4.8385,4.8472,4.8563,4.8694,4.8803,4.8883,4.8994,4.9055,4.9065,4.9082,4.9078,4.9091,4.8975,4.8945,4.9072,4.9072,4.9072,4.9072,4.9072,4.9072,4.7826,4.7953,4.7992,4.8155,4.8217,4.8335,4.839,4.8464,4.8533,4.8679,4.8769,4.8821,4.8906,4.9023,4.9123,4.9144,4.9183,4.92,4.9222,4.9112,4.9099,4.9087,4.9059,4.9208,4.9208,4.933,4.9331,4.9332]}]]